Time,TemperatureF,DewpointF,PressureIn,WindDirection,WindDirectionDegrees,WindSpeedMPH,WindSpeedGustMPH,Humidity,HourlyPrecipIn,Conditions,Clouds,dailyrainin,SolarRadiationWatts/m^2,SoftwareType,DateUTC
2013-11-04 00:00:00,33.0,29.0,-100.00,ESE,112,8.0,-999.0,84,-99.99,,,-99.99,0.000000,,2013-11-04 05:00:00,
2013-11-04 00:44:00,33.0,29.0,-100.00,ESE,112,8.0,-999.0,84,-99.99,,,-99.99,0.000000,,2013-11-04 05:44:00,
2013-11-04 00:53:00,33.0,29.0,-100.00,ESE,112,8.0,-999.0,84,-99.99,,,-99.99,0.000000,,2013-11-04 05:53:00,
2013-11-04 01:00:00,32.0,28.0,-100.00,ESE,112,7.0,-999.0,86,-99.99,,,-99.99,0.000000,,2013-11-04 06:00:00,
2013-11-04 01:42:00,32.0,28.0,-100.00,ESE,112,7.0,-999.0,86,-99.99,,,-99.99,0.000000,,2013-11-04 06:42:00,
2013-11-04 01:52:00,32.0,28.0,-100.00,ESE,112,7.0,-999.0,86,-99.99,,,-99.99,0.000000,,2013-11-04 06:52:00,
2013-11-04 02:00:00,32.0,28.0,-100.00,ESE,112,7.0,-999.0,86,-99.99,,,-99.99,0.000000,,2013-11-04 07:00:00,
2013-11-04 02:43:00,32.0,28.0,-100.00,ESE,112,7.0,-999.0,86,-99.99,,,-99.99,0.000000,,2013-11-04 07:43:00,
2013-11-04 02:52:00,32.0,28.0,-100.00,ESE,112,7.0,-999.0,86,-99.99,,,-99.99,0.000000,,2013-11-04 07:52:00,
2013-11-04 03:00:00,32.0,27.0,-100.00,ESE,112,7.0,-999.0,83,-99.99,,,-99.99,0.000000,,2013-11-04 08:00:00,
2013-11-04 03:42:00,32.0,27.0,-100.00,ESE,112,7.0,-999.0,83,-99.99,,,-99.99,0.000000,,2013-11-04 08:42:00,
2013-11-04 03:52:00,32.0,27.0,-100.00,ESE,112,7.0,-999.0,83,-99.99,,,-99.99,0.000000,,2013-11-04 08:52:00,
2013-11-04 04:00:00,31.0,26.0,-100.00,ESE,112,6.0,-999.0,84,-99.99,,,-99.99,0.000000,,2013-11-04 09:00:00,
2013-11-04 04:43:00,31.0,26.0,-100.00,ESE,112,6.0,-999.0,84,-99.99,,,-99.99,0.000000,,2013-11-04 09:43:00,
2013-11-04 04:53:00,31.0,26.0,-100.00,ESE,112,6.0,-999.0,84,-99.99,,,-99.99,0.000000,,2013-11-04 09:53:00,
2013-11-04 05:00:00,31.0,27.0,-100.00,ESE,112,6.0,-999.0,84,-99.99,,,-99.99,0.000000,,2013-11-04 10:00:00,
2013-11-04 05:42:00,31.0,27.0,-100.00,ESE,112,6.0,-999.0,84,-99.99,,,-99.99,0.000000,,2013-11-04 10:42:00,
2013-11-04 05:52:00,31.0,27.0,-100.00,ESE,112,6.0,-999.0,84,-99.99,,,-99.99,0.000000,,2013-11-04 10:52:00,
2013-11-04 06:00:00,32.0,28.0,-100.00,ESE,112,7.0,-999.0,84,-99.99,,,-99.99,0.000000,,2013-11-04 11:00:00,
2013-11-04 06:43:00,32.0,28.0,-100.00,ESE,112,7.0,-999.0,84,-99.99,,,-99.99,0.000000,,2013-11-04 11:43:00,
2013-11-04 06:52:00,32.0,28.0,-100.00,ESE,112,7.0,-999.0,84,-99.99,,,-99.99,0.000000,,2013-11-04 11:52:00,
2013-11-04 07:00:00,32.0,29.0,-100.00,ESE,112,6.0,-999.0,86,-99.99,,,-99.99,0.000000,,2013-11-04 12:00:00,
2013-11-04 07:42:00,32.0,29.0,-100.00,ESE,112,6.0,-999.0,86,-99.99,,,-99.99,0.000000,,2013-11-04 12:42:00,
2013-11-04 07:52:00,32.0,29.0,-100.00,ESE,112,6.0,-999.0,86,-99.99,,,-99.99,0.000000,,2013-11-04 12:52:00,
2013-11-04 08:00:00,33.0,30.0,-100.00,ESE,112,6.0,-999.0,88,-99.99,,,-99.99,17.400000,,2013-11-04 13:00:00,
2013-11-04 08:42:00,33.0,30.0,-100.00,ESE,112,6.0,-999.0,88,-99.99,,,-99.99,17.400000,,2013-11-04 13:42:00,
2013-11-04 08:52:00,33.0,30.0,-100.00,ESE,112,6.0,-999.0,88,-99.99,,,-99.99,17.400000,,2013-11-04 13:52:00,
2013-11-04 09:00:00,36.0,32.0,-100.00,ESE,112,9.0,-999.0,86,-99.99,,,-99.99,89.320000,,2013-11-04 14:00:00,
2013-11-04 09:42:00,36.0,32.0,-100.00,ESE,112,9.0,-999.0,86,-99.99,,,-99.99,89.320000,,2013-11-04 14:42:00,
2013-11-04 09:52:00,36.0,32.0,-100.00,ESE,112,9.0,-999.0,86,-99.99,,,-99.99,89.320000,,2013-11-04 14:52:00,
2013-11-04 10:00:00,39.0,32.0,-100.00,SE,135,11.0,-999.0,74,-99.99,,,-99.99,213.440002,,2013-11-04 15:00:00,
2013-11-04 10:42:00,39.0,32.0,-100.00,SE,135,11.0,-999.0,74,-99.99,,,-99.99,213.440002,,2013-11-04 15:42:00,
2013-11-04 10:52:00,39.0,32.0,-100.00,SE,135,11.0,-999.0,74,-99.99,,,-99.99,213.440002,,2013-11-04 15:52:00,
2013-11-04 11:00:00,42.0,30.0,-100.00,SE,135,13.0,-999.0,61,-99.99,,,-99.99,244.759995,,2013-11-04 16:00:00,
2013-11-04 11:43:00,42.0,30.0,-100.00,SE,135,13.0,-999.0,61,-99.99,,,-99.99,244.759995,,2013-11-04 16:43:00,
2013-11-04 11:53:00,42.0,30.0,-100.00,SE,135,13.0,-999.0,61,-99.99,,,-99.99,244.759995,,2013-11-04 16:53:00,
2013-11-04 12:00:00,46.0,28.0,-100.00,SE,135,13.0,-999.0,49,-99.99,,,-99.99,393.239990,,2013-11-04 17:00:00,
2013-11-04 12:42:00,46.0,28.0,-100.00,SE,135,13.0,-999.0,49,-99.99,,,-99.99,393.239990,,2013-11-04 17:42:00,
2013-11-04 12:53:00,46.0,28.0,-100.00,SE,135,13.0,-999.0,49,-99.99,,,-99.99,393.239990,,2013-11-04 17:53:00,
2013-11-04 13:00:00,47.0,26.0,-100.00,SE,135,15.0,-999.0,43,-99.99,,,-99.99,306.239990,,2013-11-04 18:00:00,
2013-11-04 13:42:00,47.0,26.0,-100.00,SE,135,15.0,-999.0,43,-99.99,,,-99.99,306.239990,,2013-11-04 18:42:00,
2013-11-04 13:52:00,47.0,26.0,-100.00,SE,135,15.0,-999.0,43,-99.99,,,-99.99,306.239990,,2013-11-04 18:52:00,
2013-11-04 14:00:00,47.0,28.0,-100.00,SE,135,14.0,-999.0,46,-99.99,,,-99.99,259.839996,,2013-11-04 19:00:00,
2013-11-04 14:42:00,47.0,28.0,-100.00,SE,135,14.0,-999.0,46,-99.99,,,-99.99,259.839996,,2013-11-04 19:42:00,
2013-11-04 14:52:00,47.0,28.0,-100.00,SE,135,14.0,-999.0,46,-99.99,,,-99.99,259.839996,,2013-11-04 19:52:00,
2013-11-04 15:00:00,47.0,27.0,-100.00,SE,135,13.0,-999.0,45,-99.99,,,-99.99,163.559998,,2013-11-04 20:00:00,
2013-11-04 15:42:00,47.0,27.0,-100.00,SE,135,13.0,-999.0,45,-99.99,,,-99.99,163.559998,,2013-11-04 20:42:00,
2013-11-04 15:53:00,47.0,27.0,-100.00,SE,135,13.0,-999.0,45,-99.99,,,-99.99,163.559998,,2013-11-04 20:53:00,
2013-11-04 16:00:00,47.0,26.0,-100.00,ESE,112,15.0,-999.0,43,-99.99,,,-99.99,194.880005,,2013-11-04 21:00:00,
2013-11-04 16:45:00,47.0,26.0,-100.00,ESE,112,15.0,-999.0,43,-99.99,,,-99.99,194.880005,,2013-11-04 21:45:00,
2013-11-04 16:54:00,47.0,26.0,-100.00,ESE,112,15.0,-999.0,43,-99.99,,,-99.99,194.880005,,2013-11-04 21:54:00,
2013-11-04 17:00:00,46.0,26.0,-100.00,SE,135,13.0,-999.0,45,-99.99,,,-99.99,58.000000,,2013-11-04 22:00:00,
2013-11-04 17:43:00,46.0,26.0,-100.00,SE,135,13.0,-999.0,45,-99.99,,,-99.99,58.000000,,2013-11-04 22:43:00,
2013-11-04 17:53:00,46.0,26.0,-100.00,SE,135,13.0,-999.0,45,-99.99,,,-99.99,58.000000,,2013-11-04 22:53:00,
2013-11-04 18:00:00,43.0,28.0,-100.00,ESE,112,11.0,-999.0,54,-99.99,,,-99.99,2.320000,,2013-11-04 23:00:00,
2013-11-04 18:43:00,43.0,28.0,-100.00,ESE,112,11.0,-999.0,54,-99.99,,,-99.99,2.320000,,2013-11-04 23:43:00,
2013-11-04 18:53:00,43.0,28.0,-100.00,ESE,112,11.0,-999.0,54,-99.99,,,-99.99,2.320000,,2013-11-04 23:53:00,
2013-11-04 19:00:00,42.0,29.0,-100.00,ESE,112,13.0,-999.0,59,-99.99,,,-99.99,0.000000,,2013-11-05 00:00:00,
2013-11-04 19:42:00,42.0,29.0,-100.00,ESE,112,13.0,-999.0,59,-99.99,,,-99.99,0.000000,,2013-11-05 00:42:00,
2013-11-04 19:52:00,42.0,29.0,-100.00,ESE,112,13.0,-999.0,59,-99.99,,,-99.99,0.000000,,2013-11-05 00:52:00,
2013-11-04 20:00:00,42.0,30.0,-100.00,SE,135,12.0,-999.0,62,-99.99,,,-99.99,0.000000,,2013-11-05 01:00:00,
2013-11-04 20:42:00,42.0,30.0,-100.00,SE,135,12.0,-999.0,62,-99.99,,,-99.99,0.000000,,2013-11-05 01:42:00,
2013-11-04 20:52:00,42.0,30.0,-100.00,SE,135,12.0,-999.0,62,-99.99,,,-99.99,0.000000,,2013-11-05 01:52:00,
2013-11-04 21:00:00,43.0,31.0,-100.00,SE,135,10.0,-999.0,64,-99.99,,,-99.99,0.000000,,2013-11-05 02:00:00,
2013-11-04 21:42:00,43.0,31.0,-100.00,SE,135,10.0,-999.0,64,-99.99,,,-99.99,0.000000,,2013-11-05 02:42:00,
2013-11-04 21:52:00,43.0,31.0,-100.00,SE,135,10.0,-999.0,64,-99.99,,,-99.99,0.000000,,2013-11-05 02:52:00,
2013-11-04 22:00:00,42.0,31.0,-100.00,SSE,157,9.0,-999.0,64,-99.99,,,-99.99,0.000000,,2013-11-05 03:00:00,
2013-11-04 22:44:00,42.0,31.0,-100.00,SSE,157,9.0,-999.0,64,-99.99,,,-99.99,0.000000,,2013-11-05 03:44:00,
2013-11-04 22:54:00,42.0,31.0,-100.00,SSE,157,9.0,-999.0,64,-99.99,,,-99.99,0.000000,,2013-11-05 03:54:00,
2013-11-04 23:00:00,43.0,32.0,-100.00,SSE,157,9.0,-999.0,64,-99.99,,,-99.99,0.000000,,2013-11-05 04:00:00,
2013-11-04 23:44:00,43.0,32.0,-100.00,SSE,157,9.0,-999.0,64,-99.99,,,-99.99,0.000000,,2013-11-05 04:44:00,
2013-11-04 23:53:00,43.0,32.0,-100.00,SSE,157,9.0,-999.0,64,-99.99,,,-99.99,0.000000,,2013-11-05 04:53:00,